Date String (YYYY-MM-DD hh:mm:ss) UTC,Instrument flags,Ambient pressure (hPa),Sample flow (lpm),Bypass flow (lpm),Sample temperature (°C),Ambient temperature (°C),ASC tube jacket temperature (°C),LED temperature (°C),Box temperature (°C),Sample RH (%),Span deviation,Mass concentration (μg/m³),Mass concentration (μg/m³),Mass concentration (μg/m³)
DateTimeUTC,F1_M11,P_M11,Q1_M11,Q2_M11,T1_M11,T2_M11,T3_M11,T4_M11,T5_M11,U1_M11,ZSPAN_M11,X0_M11,X2_M11,X1_M11
2022-05-22 06:00:00,,0833.0,5.00,0.00,24.5,23.5,00.0,33.4,26.4,19.8,0000.0,0000.01,0000.01,0000.00
2022-05-22 06:01:00,,0833.0,5.01,0.00,24.5,23.5,00.0,33.4,26.4,19.7,0000.0,0000.01,0000.01,0000.00
2022-05-22 06:02:00,,0833.1,4.99,0.00,24.5,23.5,00.0,33.4,26.4,19.9,0000.0,0000.01,0000.01,0000.00
2022-05-22 06:03:00,,0833.0,5.00,0.00,24.5,23.5,00.0,33.4,26.3,20.0,0000.0,0000.01,0000.01,0000.00
2022-05-22 06:04:00,,0833.0,4.99,0.00,24.5,23.5,00.0,33.4,26.4,19.8,0000.0,0000.01,0000.01,0000.00
2022-05-22 06:05:00,,0833.0,5.00,0.00,24.5,23.5,00.0,33.4,26.4,19.8,0000.0,0000.01,0000.01,0000.00
2022-05-22 06:06:00,,0833.0,4.99,0.00,24.5,23.5,00.0,33.4,26.4,19.7,0000.0,0000.03,0000.01,0000.00
2022-05-22 06:07:00,,0833.0,4.99,0.00,24.5,23.5,00.0,33.4,26.4,19.4,0000.0,0000.04,0000.02,0000.01
2022-05-22 06:08:00,,0833.1,5.00,0.00,24.5,23.5,00.0,33.4,26.4,19.5,0000.0,0000.03,0000.01,0000.00
2022-05-22 06:09:00,,0833.0,5.00,0.00,24.5,23.5,00.0,33.4,26.4,19.4,0000.0,0000.03,0000.01,0000.00
2022-05-22 06:10:00,,0833.1,4.99,0.00,24.5,23.5,00.0,33.4,26.4,19.5,0000.0,0000.03,0000.01,0000.00
2022-05-22 06:11:00,,0833.0,5.01,0.00,24.5,23.5,00.0,33.4,26.4,19.3,0000.0,0000.03,0000.01,0000.00
2022-05-22 06:12:00,,0833.0,5.00,0.00,24.5,23.5,00.0,33.4,26.4,18.7,0000.0,0000.05,0000.02,0000.00
2022-05-22 06:13:00,,0832.9,5.00,0.00,24.5,23.5,00.0,33.4,26.4,18.2,0000.0,0000.08,0000.02,0000.00
2022-05-22 06:14:00,,0832.8,5.01,0.00,24.5,23.6,00.0,33.4,26.4,18.3,0000.0,0000.08,0000.02,0000.00
2022-05-22 06:15:00,,0832.8,4.99,0.00,24.5,23.6,00.0,33.4,26.4,18.8,0000.0,0000.08,0000.02,0000.00
2022-05-22 06:16:00,,0832.8,5.01,0.00,24.5,23.6,00.0,33.4,26.4,18.6,0000.0,0000.08,0000.02,0000.00
2022-05-22 06:17:00,,0832.9,4.99,0.00,24.5,23.6,00.0,33.4,26.4,18.6,0000.0,0000.05,0000.02,0000.00
2022-05-22 06:18:00,,0832.9,5.01,0.00,24.5,23.6,00.0,33.4,26.4,18.3,0000.0,0001.91,0000.04,0000.00
2022-05-22 06:19:00,,0832.9,4.99,0.00,24.5,23.6,00.0,33.4,26.4,18.0,0000.0,0002.52,0000.04,0000.00
2022-05-22 06:20:00,,0832.9,5.01,0.00,24.5,23.6,00.0,33.4,26.5,17.9,0000.0,0002.52,0000.04,0000.00
2022-05-22 06:21:00,,0832.8,5.00,0.00,24.5,23.6,00.0,33.4,26.4,17.7,0000.0,0002.52,0000.04,0000.00
2022-05-22 06:22:00,,0832.8,4.99,0.00,24.5,23.5,00.0,33.4,26.3,17.3,0000.0,0002.52,0000.04,0000.01
2022-05-22 06:23:00,,0832.8,5.00,0.00,24.5,23.5,00.0,33.4,26.3,17.1,0000.0,0002.50,0000.04,0000.00
2022-05-22 06:24:00,,0832.8,5.00,0.00,24.4,23.5,00.0,33.4,26.3,16.8,0000.0,0002.50,0000.05,0000.00
2022-05-22 06:25:00,,0832.9,4.99,0.00,24.4,23.4,00.0,33.4,26.3,16.8,0000.0,0002.50,0000.05,0000.00
2022-05-22 06:26:00,,0832.8,5.01,0.00,24.4,23.4,00.0,33.4,26.2,16.3,0000.0,0002.50,0000.05,0000.00
2022-05-22 06:27:00,,0832.8,4.98,0.00,24.4,23.4,00.0,33.4,26.2,16.0,0000.0,0002.50,0000.05,0000.00
2022-05-22 06:28:00,,0832.9,5.01,0.00,24.4,23.4,00.0,33.4,26.2,16.2,0000.0,0002.50,0000.05,0000.00
2022-05-22 06:29:00,,0832.8,5.01,0.00,24.4,23.3,00.0,33.4,26.2,16.3,0000.0,0000.56,0000.04,0000.00
2022-05-22 06:30:00,,0832.8,4.99,0.00,24.4,23.3,00.0,33.4,26.2,16.3,0000.0,0000.36,0000.08,0000.01
2022-05-22 06:31:00,,0832.7,5.00,0.00,24.4,23.3,00.0,33.4,26.2,16.3,0000.0,0000.49,0000.10,0000.01
2022-05-22 06:32:00,,0832.8,5.00,0.00,24.4,23.3,00.0,33.3,26.2,16.3,0000.0,0000.49,0000.10,0000.01
2022-05-22 06:33:00,,0832.8,5.01,0.00,24.3,23.3,00.0,33.3,26.2,16.2,0000.0,0000.49,0000.10,0000.01
2022-05-22 06:34:00,,0832.7,4.99,0.00,24.3,23.3,00.0,33.3,26.2,16.1,0000.0,0000.53,0000.12,0000.01
2022-05-22 06:35:00,,0832.8,5.01,0.00,24.3,23.3,00.0,33.3,26.2,15.9,0000.0,0000.55,0000.12,0000.01
2022-05-22 06:36:00,,0832.8,5.01,0.00,24.3,23.3,00.0,33.3,26.2,15.7,0000.0,0000.59,0000.13,0000.01
2022-05-22 06:37:00,,0832.8,5.00,0.00,24.3,23.3,00.0,33.3,26.2,15.9,0000.0,0000.59,0000.13,0000.01
2022-05-22 06:38:00,,0832.8,5.00,0.00,24.3,23.3,00.0,33.3,26.2,15.8,0000.0,0000.59,0000.13,0000.01
2022-05-22 06:39:00,,0832.8,5.01,0.00,24.3,23.3,00.0,33.3,26.3,15.8,0000.0,0000.59,0000.13,0000.01
2022-05-22 06:40:00,,0832.8,4.99,0.00,24.3,23.3,00.0,33.3,26.3,16.0,0000.0,0000.55,0000.12,0000.01
2022-05-22 06:41:00,,0832.7,5.00,0.00,24.3,23.4,00.0,33.3,26.3,15.6,0000.0,0000.26,0000.08,0000.01
2022-05-22 06:42:00,,0832.7,5.01,0.00,24.3,23.4,00.0,33.3,26.3,15.7,0000.0,0000.17,0000.06,0000.00
2022-05-22 06:43:00,,0832.7,4.99,0.00,24.3,23.4,00.0,33.3,26.3,15.7,0000.0,0000.17,0000.06,0000.01
2022-05-22 06:44:00,,0832.7,5.00,0.00,24.3,23.4,00.0,33.3,26.3,15.7,0000.0,0000.21,0000.06,0000.01
2022-05-22 06:45:00,,0832.7,5.00,0.00,24.4,23.4,00.0,33.3,26.3,15.6,0000.0,0000.39,0000.05,0000.00
2022-05-22 06:46:00,,0832.7,4.99,0.00,24.4,23.4,00.0,33.3,26.3,15.7,0000.0,0000.63,0000.04,0000.00
2022-05-22 06:47:00,,0832.7,5.00,0.00,24.4,23.4,00.0,33.3,26.3,15.7,0000.0,0000.73,0000.03,0000.00
2022-05-22 06:48:00,,0832.6,5.01,0.00,24.3,23.4,00.0,33.3,26.3,15.4,0000.0,0001.61,0000.03,0000.00
2022-05-22 06:49:00,,0832.7,4.99,0.00,24.4,23.4,00.0,33.3,26.3,15.3,0000.0,0001.61,0000.03,0000.00
2022-05-22 06:50:00,,0832.6,5.01,0.00,24.3,23.3,00.0,33.3,26.3,15.2,0000.0,0001.60,0000.03,0000.00
2022-05-22 06:51:00,,0832.5,5.01,0.00,24.3,23.3,00.0,33.3,26.2,15.3,0000.0,0001.60,0000.03,0000.00
2022-05-22 06:52:00,,0832.6,4.99,0.00,24.3,23.3,00.0,33.3,26.2,15.1,0000.0,0001.59,0000.03,0000.00
2022-05-22 06:53:00,,0832.6,5.01,0.00,24.3,23.3,00.0,33.3,26.2,15.1,0000.0,0001.56,0000.02,0000.00
2022-05-22 06:54:00,,0832.7,5.00,0.00,24.3,23.2,00.0,33.3,26.2,15.3,0000.0,0001.57,0000.02,0000.00
2022-05-22 06:55:00,,0832.7,4.99,0.00,24.3,23.2,00.0,33.3,26.2,15.3,0000.0,0001.59,0000.04,0000.00
2022-05-22 06:56:00,,0832.7,5.01,0.00,24.3,23.2,00.0,33.3,26.2,15.4,0000.0,0001.37,0000.03,0000.01
2022-05-22 06:57:00,,0832.6,4.99,0.00,24.3,23.2,00.0,33.3,26.2,15.3,0000.0,0001.11,0000.03,0000.01
2022-05-22 06:58:00,,0832.6,4.99,0.00,24.3,23.2,00.0,33.3,26.2,15.4,0000.0,0001.10,0000.03,0000.01
2022-05-22 06:59:00,,0832.5,5.01,0.00,24.3,23.2,00.0,33.2,26.2,15.4,0000.0,0000.17,0000.03,0000.01
